TimeEST,TemperatureF,Dew PointF,Humidity,Sea Level PressureIn,VisibilityMPH,Wind Direction,Wind SpeedMPH,Gust SpeedMPH,PrecipitationIn,Events,Conditions,WindDirDegrees,DateUTC
12:55 AM,30.0,17.1,59,30.20,10.0,ENE,5.8,-,N/A,,Scattered Clouds,60,2013-11-03 04:55:00
1:55 AM,28.9,16.0,58,30.22,10.0,ENE,4.6,-,N/A,,Clear,70,2013-11-03 05:55:00
1:55 AM,28.9,17.1,61,30.25,10.0,East,4.6,-,N/A,,Clear,80,2013-11-03 06:55:00
2:55 AM,28.0,16.0,61,30.26,10.0,East,3.5,-,N/A,,Scattered Clouds,80,2013-11-03 07:55:00
3:55 AM,28.0,17.1,63,30.28,10.0,East,3.5,-,N/A,,Overcast,80,2013-11-03 08:55:00
4:55 AM,28.0,18.0,66,30.30,10.0,East,3.5,-,N/A,,Overcast,80,2013-11-03 09:55:00
5:55 AM,28.0,18.0,66,30.32,10.0,East,4.6,-,N/A,,Overcast,80,2013-11-03 10:55:00
6:55 AM,28.0,18.0,66,30.33,10.0,East,4.6,-,N/A,,Overcast,80,2013-11-03 11:55:00
7:55 AM,28.9,18.0,64,30.37,10.0,East,5.8,-,N/A,,Overcast,80,2013-11-03 12:55:00
8:55 AM,30.0,18.0,61,30.37,10.0,East,6.9,-,N/A,,Overcast,90,2013-11-03 13:55:00
9:55 AM,33.1,19.0,56,30.39,10.0,East,6.9,-,N/A,,Mostly Cloudy,100,2013-11-03 14:55:00
10:55 AM,35.1,21.0,57,30.40,10.0,ESE,8.1,-,N/A,,Overcast,110,2013-11-03 15:55:00
11:55 AM,36.0,23.0,59,30.40,10.0,ESE,10.4,-,N/A,,Scattered Clouds,110,2013-11-03 16:55:00
12:55 PM,37.9,25.0,60,30.39,10.0,Variable,6.9,-,N/A,,Scattered Clouds,0,2013-11-03 17:55:00
1:55 PM,39.9,23.0,51,30.38,10.0,SSE,8.1,-,N/A,,Mostly Cloudy,160,2013-11-03 18:55:00
2:55 PM,39.9,24.1,53,30.39,10.0,ESE,8.1,-,N/A,,Partly Cloudy,110,2013-11-03 19:55:00
3:55 PM,37.9,23.0,55,30.39,10.0,SSE,10.4,-,N/A,,Clear,150,2013-11-03 20:55:00
4:55 PM,36.0,23.0,59,30.39,10.0,SE,9.2,-,N/A,,Clear,140,2013-11-03 21:55:00
5:55 PM,34.0,23.0,64,30.41,10.0,ESE,4.6,-,N/A,,Clear,120,2013-11-03 22:55:00
6:55 PM,34.0,23.0,64,30.42,10.0,ESE,6.9,-,N/A,,Clear,120,2013-11-03 23:55:00
7:55 PM,34.0,23.0,64,30.42,10.0,East,4.6,-,N/A,,Clear,100,2013-11-04 00:55:00
8:55 PM,33.1,24.1,70,30.41,10.0,East,6.9,-,N/A,,Clear,100,2013-11-04 01:55:00
9:55 PM,33.1,25.0,72,30.41,10.0,East,6.9,-,N/A,,Clear,90,2013-11-04 02:55:00
10:55 PM,35.1,28.0,76,30.42,10.0,ESE,6.9,-,N/A,,Clear,120,2013-11-04 03:55:00